Location: Tr�vern
(48.0333°N, 4.6000°W)
Time: 03:01:06
(UTC+00:00)

NOSS 2-1 (E) - Pass Details

Date: 14 July 2020
Orbit: 446 x 1757 km, 63.3° (Epoch: 01 August)

Event Time Altitude Azimuth Distance (km) Brightness Sun altitude
Rises 01:19:11 0° 318° (NW) 3,054 7.6 -19.3°
Reaches altitude 10° 01:21:12 10° 317° (NW) 2,276 6.9 -19.2°
Maximum altitude 01:26:27 81° 232° (SW) 957 4.3 -19.0°
Drops below altitude 10° 01:33:54 10° 146° (SE) 3,173 6.8 -18.6°
Enters shadow 01:34:25 - 146° (SE) 3,360 6.9 -18.6°
